Location: Unspecified
(0.0000°N, 0.0000°E)
Time: 14:07:47
(UTC+00:00)

deb Delta 126 - Pass Details

Date: 16 February 2026
Orbit: 1501 x 1634 km, 102.6° (Epoch: 4 March)

Event Time Altitude Azimuth Distance (km) Brightness Sun altitude
Rises 02:51:33 0° 45° (NE) 4,787 ? -49.0°
Reaches altitude 10° 02:55:12 10° 58° (ENE) 3,785 ? -48.2°
Maximum altitude 03:01:55 24° 107° (ESE) 2,787 ? -46.6°
Drops below altitude 10° 03:08:29 10° 157° (SSE) 3,717 ? -45.0°
Sets 03:11:59 0° 170° (S) 4,684 ? -44.2°
